Location: State Line Observation Field
(36.5320°N, 77.5360°W)
Time: 01:34:05
(UTC-05:00)

LightSail 2 - Pass Details

Date: 18 November 2019
Orbit: 696 x 730 km, 24.0° (Epoch: 10 December)

Event Time Altitude Azimuth Distance (km) Brightness Sun altitude
Exits shadow 05:24:50 - 223° (SW) 2,325 7.5 -17.2°
Reaches altitude 10° 05:25:48 10° 213° (SSW) 2,204 7.5 -17.0°
Maximum altitude 05:27:11 11° 197° (SSW) 2,136 7.6 -16.8°
Drops below altitude 10° 05:28:35 10° 182° (S) 2,206 7.8 -16.5°
Sets 05:33:02 0° 147° (SSE) 3,129 9.2 -15.6°
